Dewpoint
48 48 49 50 50 50 51 51 52 52 52 52 52 49 48 48 48 48 48 47 47 47 48 46 48 51 50 50 49 50 50 43 42 39 37 36 43 54 53 54 54 54 55 40 30 28 27 27 26 27 26 23 21 19 17 21 18 15 12 11 9 0 1 -1 0 -1 9 9 10 12 13 18 21 51 48 47 48 48 55 59 60 60 61 62 63 64 65 66
47 46 47 48 50 50 50 51 51 51 51 52 51 52 50 49 48 48 48 48 48 48 48 47 48 49 49 49 49 50 46 42 39 36 34 43 51 50 54 57 56 58 52 32 25 20 19 22 23 23 20 17 23 12 20 15 18 13 11 10 3 3 0 5 4 5 8 9 12 13 13 23 31 51 51 41 42 53 53 58 58 59 60 61 63 64 64 64
45 46 46 48 49 50 49 50 50 51 52 52 52 51 51 50 49 48 47 48 47 47 47 47 47 47 48 49 50 49 44 36 35 31 30 53 52 53 54 54 54 60 43 26 25 19 14 17 21 19 17 14 18 15 17 20 18 12 12 10 9 7 6 7 9 8 10 12 12 12 13 28 46 49 54 45 51 53 52 56 58 58 60 61 64 64 63 63
46 46 46 46 47 48 49 48 50 50 50 52 52 52 51 51 50 49 48 47 47 47 48 47 46 46 47 49 49 44 38 36 30 24 37 56 60 57 53 53 54 50 31 23 24 23 21 17 20 17 13 11 15 17 13 21 13 11 17 14 5 11 10 7 7 9 12 14 13 12 13 30 51 51 49 50 47 48 49 55 56 58 59 61 63 63 62 62
45 46 46 45 45 47 48 48 49 50 50 51 51 51 52 51 51 51 49 47 47 48 48 47 48 48 47 49 49 42 38 18 13 31 43 55 58 62 58 54 54 39 32 20 23 25 21 14 17 15 12 11 16 18 12 21 14 22 16 9 16 18 8 12 11 14 14 15 13 12 13 47 53 53 48 51 47 46 50 56 58 60 61 61 62 62 61 61
47 47 46 46 46 47 47 47 48 49 49 50 50 51 52 53 51 51 51 48 47 48 47 48 49 48 49 50 43 39 35 -2 27 29 50 52 57 61 63 58 55 38 27 22 24 26 19 14 12 13 11 6 15 11 9 17 17 18 19 12 22 18 9 15 15 14 14 13 12 11 12 36 52 51 52 50 53 57 58 58 58 58 60 62 63 61 61 62
48 49 49 46 46 46 46 48 48 49 49 49 50 50 51 52 51 51 51 48 48 47 47 48 48 47 49 50 40 38 34 31 26 33 50 50 56 61 60 62 56 38 24 21 22 24 19 12 9 9 8 9 14 10 9 16 19 12 10 17 18 18 16 17 14 14 14 14 12 11 12 19 50 49 53 54 58 56 59 58 57 58 61 63 62 61 61 62
48 48 48 49 46 47 47 46 47 48 49 49 49 50 51 52 52 52 51 50 47 48 48 47 47 49 48 39 35 32 32 28 28 33 45 46 44 53 62 56 45 34 21 18 22 22 16 11 9 7 5 8 12 9 15 18 18 10 10 18 14 15 15 14 13 13 14 13 12 17 23 18 45 54 55 56 58 58 59 59 58 60 63 63 62 61 62 63
48 48 48 48 49 46 46 46 46 47 48 49 49 49 50 51 52 52 51 50 48 47 47 47 46 50 49 40 35 30 20 27 31 34 33 32 31 46 49 47 42 28 17 18 22 21 15 9 8 8 6 8 13 10 21 13 12 12 9 16 16 16 15 13 13 14 13 12 24 43 41 30 42 57 55 59 59 60 60 59 59 62 62 62 62 62 63 64
48 47 47 47 48 48 46 46 46 46 47 48 49 48 49 50 51 52 51 51 48 47 47 47 47 49 43 37 35 24 23 28 35 36 35 34 31 29 42 44 39 25 15 13 19 21 17 10 7 11 15 7 17 10 19 11 10 13 13 16 15 14 15 14 12 13 11 13 37 41 43 42 54 53 53 62 62 61 59 59 60 61 61 62 62 64 64 64
48 48 47 47 47 47 46 46 46 46 46 48 48 48 49 50 50 51 51 50 48 47 47 47 47 48 37 38 30 23 30 33 36 35 34 33 31 27 36 41 39 28 14 8 15 20 19 12 8 12 15 9 12 10 15 12 13 16 15 14 15 16 14 13 12 12 11 17 35 40 47 50 51 46 50 60 63 62 59 60 60 60 61 61 63 63 64 64
47 47 47 47 46 46 46 45 45 46 46 47 48 48 48 49 50 51 50 51 50 47 47 47 47 42 37 35 33 29 32 33 33 30 32 33 30 29 26 28 38 30 15 8 14 19 18 18 13 13 2 13 6 14 15 14 15 12 12 9 9 10 10 11 11 10 12 12 32 43 46 48 50 46 57 61 62 63 62 61 60 61 61 63 63 63 63 64
47 47 47 47 47 46 46 45 45 46 46 47 47 48 48 48 50 51 51 51 49 47 47 46 46 41 41 35 33 35 35 33 31 33 33 31 31 29 27 29 35 34 20 10 12 18 16 14 18 11 13 12 9 5 10 15 13 11 10 7 7 7 5 8 10 10 9 23 39 42 32 40 49 56 57 62 62 62 61 60 61 61 62 62 63 62 63 63
46 47 46 47 46 46 46 45 45 45 46 46 46 47 47 48 49 50 51 50 48 47 46 48 43 38 33 30 32 33 34 34 34 32 30 28 27 23 26 32 36 34 24 16 12 18 15 10 18 15 15 11 10 12 12 10 10 7 7 7 8 3 -0 5 9 9 8 29 41 40 35 42 52 57 60 62 62 60 59 59 60 62 62 62 62 63 62 63
46 46 46 46 46 46 45 45 45 45 45 46 46 47 48 48 49 50 51 50 50 47 48 47 41 37 34 30 30 30 45 34 33 31 30 30 25 20 29 35 35 31 22 20 15 15 11 10 17 17 12 13 12 8 8 9 9 6 6 6 3 5 -1 7 9 8 7 36 43 38 31 44 51 56 58 60 61 60 59 60 61 62 61 61 61 62 61 62
46 46 46 45 45 45 45 45 45 45 45 45 46 46 47 48 49 50 50 50 49 47 45 41 37 35 30 24 21 35 29 28 29 32 31 30 26 20 30 31 25 21 17 18 15 11 9 11 12 12 9 12 9 6 4 5 7 6 7 9 3 4 2 6 7 9 13 37 43 35 27 49 51 58 59 59 59 60 59 59 60 59 60 61 61 61 61 62
47 46 45 45 44 45 45 45 46 45 44 45 46 46 47 48 49 49 50 50 48 46 40 35 36 37 28 26 24 25 22 22 26 23 25 28 28 20 29 26 20 17 16 19 16 11 11 10 12 10 10 7 7 5 6 8 9 8 6 10 5 0 3 2 10 11 21 37 34 38 33 45 52 58 59 59 59 59 60 60 60 61 60 61 61 61 61 62
46 46 46 44 45 45 45 45 45 45 45 46 46 46 46 48 49 49 48 48 45 42 40 37 35 35 31 31 21 19 25 23 24 25 25 24 27 21 28 21 19 15 17 17 20 14 12 8 10 7 8 8 5 7 9 6 11 12 11 12 10 2 4 3 6 16 25 30 29 34 37 50 55 57 60 59 60 59 59 58 60 60 60 61 61 60 61 60
46 46 46 45 44 45 44 45 45 45 45 47 45 47 49 49 45 46 45 44 40 38 35 34 34 24 15 19 24 27 28 26 24 23 22 22 25 22 27 24 19 15 14 15 18 17 13 10 11 7 6 6 6 6 6 5 4 8 6 7 9 7 5 3 20 21 26 27 29 29 40 48 57 57 58 60 60 58 57 56 56 57 57 58 59 60 60 61
46 46 45 45 45 44 45 45 45 45 45 44 41 43 42 37 34 34 44 42 38 35 32 25 33 27 23 17 22 26 26 24 22 22 22 24 21 22 27 22 20 15 14 13 16 17 12 11 8 7 5 4 7 6 6 11 9 9 7 4 3 -1 3 19 21 34 34 24 28 23 40 48 54 57 57 59 58 56 54 54 55 57 57 58 57 57 57 58
47 46 45 45 44 44 44 44 44 44 44 42 41 38 29 26 25 22 32 36 38 37 34 33 31 29 27 27 24 25 22 22 23 23 22 24 19 23 23 18 18 14 13 11 14 15 12 12 8 3 3 3 3 5 12 12 9 7 5 1 4 -0 8 17 25 30 42 33 39 36 37 47 54 55 57 57 57 55 54 54 55 57 57 56 55 56 57 58
46 46 45 45 44 44 44 43 44 44 45 43 42 33 30 28 28 37 34 28 35 35 34 33 33 30 31 31 30 29 26 20 20 20 22 22 19 19 22 17 13 9 13 11 13 15 14 9 7 4 2 1 3 5 8 13 10 7 5 5 4 2 28 33 33 34 35 33 35 41 46 50 53 53 54 56 56 56 55 56 56 56 56 55 55 56 57 58
46 46 46 45 44 44 43 43 44 44 45 44 38 32 31 32 36 36 36 31 30 33 33 32 31 32 31 31 30 29 21 16 17 16 20 22 18 17 20 16 12 10 10 10 11 14 13 8 7 4 2 0 4 9 11 9 12 10 8 7 4 16 18 25 32 33 32 30 38 45 46 50 51 53 53 54 56 55 57 56 57 57 55 55 56 57 58 59
46 46 46 45 44 44 43 44 46 45 43 39 34 31 33 33 36 36 36 27 24 24 26 28 30 29 28 26 27 28 20 16 19 20 20 21 17 18 19 16 10 6 4 9 8 6 4 5 6 4 4 3 5 3 4 8 11 13 7 4 1 16 7 18 32 35 36 38 40 45 47 49 50 51 51 53 56 54 55 56 56 56 57 57 58 58 59 58
46 46 46 46 45 44 44 46 43 42 41 38 35 34 34 37 36 39 36 28 26 22 26 25 28 28 27 28 27 22 19 16 17 19 21 19 17 17 18 18 11 11 12 10 5 4 3 3 5 5 3 2 3 2 2 7 10 12 11 5 3 8 17 27 34 30 30 37 40 36 30 36 48 50 50 51 53 54 55 54 53 54 56 56 56 57 57 58
46 47 46 46 46 44 45 42 39 39 39 36 34 33 36 38 40 42 36 24 17 14 25 22 28 23 29 27 24 18 20 18 19 19 20 21 21 17 18 18 15 13 8 5 4 7 4 8 5 4 2 -0 1 1 2 5 9 13 10 9 19 17 27 30 30 25 28 30 38 33 23 30 43 46 49 51 51 52 52 53 53 54 55 54 54 57 57 58
46 46 45 45 45 45 41 35 42 41 37 34 35 42 38 42 45 42 30 18 16 19 22 23 23 18 26 24 21 16 12 10 16 18 19 22 19 19 16 18 19 13 8 10 10 6 13 9 3 3 2 0 0 2 2 4 7 8 8 7 24 27 25 21 23 18 21 23 39 40 32 31 35 43 48 51 50 51 52 52 52 53 54 54 54 57 58 58
46 46 44 44 45 45 40 42 39 37 34 40 43 41 40 41 42 44 27 14 12 20 17 24 22 26 21 23 17 12 12 12 11 15 18 20 21 17 16 17 15 13 13 11 8 8 18 7 2 2 3 -0 -1 0 1 3 5 8 8 7 15 25 24 24 21 18 20 34 36 36 31 32 30 42 48 50 49 49 51 50 52 52 54 54 54 56 57 58
46 45 45 45 46 46 46 44 41 37 41 41 41 42 45 45 40 33 18 10 15 15 25 23 23 21 20 20 12 10 11 12 6 14 18 19 20 17 16 17 16 20 14 8 5 17 12 9 3 2 1 0 -0 -0 3 4 5 10 9 9 11 19 27 23 19 20 28 27 25 27 26 20 24 42 45 48 47 48 50 49 51 52 53 54 55 56 56 57
45 45 44 45 45 46 45 45 41 44 43 42 44 44 46 43 36 25 16 10 14 11 17 22 18 18 20 15 10 7 10 10 13 16 17 17 18 17 16 18 16 20 17 14 6 16 13 16 11 3 1 1 -0 1 4 2 5 14 16 17 20 20 22 23 23 23 30 20 19 27 27 18 21 39 41 43 45 46 47 49 50 52 53 54 55 55 55 55
45 45 45 44 45 43 41 40 41 44 44 42 43 45 44 37 23 16 11 11 15 18 21 19 15 18 17 10 6 6 9 10 13 16 16 17 16 17 17 17 20 19 19 14 13 17 16 12 8 4 6 1 5 6 4 2 7 12 11 10 12 19 22 23 26 27 21 14 13 22 29 23 15 34 37 40 43 44 46 48 49 51 52 53 54 54 54 55
45 46 46 46 46 45 42 39 44 47 43 43 42 42 38 22 23 16 12 18 13 19 17 16 16 17 15 8 3 5 8 10 13 15 14 15 17 16 17 19 20 18 15 15 16 15 14 13 11 10 19 7 7 5 4 2 8 9 10 11 13 15 19 14 16 18 14 12 13 23 23 21 17 23 37 38 41 43 46 46 48 50 52 53 53 54 55 55
46 46 46 45 44 44 44 44 46 44 44 43 40 39 28 19 15 14 18 14 19 31 17 16 16 16 14 5 1 5 9 8 13 15 15 14 14 14 16 17 17 18 16 19 16 15 14 13 14 15 12 12 4 0 4 3 4 6 9 12 11 9 11 13 13 15 14 21 24 25 22 20 20 32 39 38 42 43 45 47 49 50 53 53 52 53 54 54
47 47 44 43 43 40 43 46 45 45 44 37 37 33 27 17 15 17 21 24 28 28 25 15 16 17 13 3 2 6 8 9 13 14 14 14 14 17 15 16 17 16 19 20 14 10 13 15 15 13 11 11 6 -1 1 2 3 2 5 8 12 11 12 12 10 12 10 15 23 26 26 22 21 30 45 44 40 44 45 46 50 52 53 54 52 53 53 53
47 46 47 46 45 42 43 42 44 46 42 37 34 26 19 17 18 19 20 27 31 27 22 18 15 15 12 3 4 7 9 13 13 14 13 13 14 14 15 14 17 16 15 16 20 19 13 13 12 13 11 11 7 2 3 1 2 3 4 6 10 11 14 8 16 12 18 24 24 29 24 26 30 45 47 48 47 47 45 47 52 52 53 54 53 52 52 53
46 45 46 43 41 41 42 43 45 45 42 37 29 23 19 19 19 28 27 33 33 29 27 18 13 12 10 1 2 6 10 13 12 14 13 11 13 14 13 13 13 15 17 16 20 13 11 14 13 13 15 11 8 5 4 2 8 5 2 7 6 9 8 18 21 30 27 22 18 29 29 32 42 43 44 45 46 46 45 49 51 52 52 53 53 53 53 54
42 43 41 42 39 40 43 45 45 44 41 36 27 19 22 24 32 30 35 31 32 31 26 15 14 10 8 5 4 5 11 12 15 15 16 13 14 13 13 13 15 14 16 17 18 11 11 14 13 13 13 12 9 7 7 5 2 6 7 6 9 11 12 18 9 15 15 13 19 27 22 25 23 23 44 44 45 45 45 46 50 52 52 52 52 53 53 53
43 40 40 37 36 39 42 43 45 44 40 34 25 24 32 27 35 34 36 34 31 29 27 16 16 12 8 3 2 5 11 11 14 14 13 12 15 14 12 13 14 14 14 15 17 20 14 14 13 11 11 11 9 9 6 6 2 6 4 4 9 15 12 18 14 13 11 12 14 26 21 24 21 29 40 43 44 45 45 46 50 51 51 51 52 52 53 53
43 39 35 37 42 42 43 45 45 41 37 29 26 24 32 32 39 35 35 35 33 28 27 23 17 16 8 5 1 4 10 13 13 13 14 15 14 17 12 12 13 15 13 14 15 20 21 16 14 11 9 12 12 9 8 5 9 10 7 3 6 13 16 11 14 18 15 10 16 22 24 25 26 26 38 42 44 45 45 45 48 50 51 51 52 51 51 52
39 36 28 41 43 46 46 47 43 38 33 25 25 24 36 31 33 37 37 35 30 28 28 27 18 17 11 5 0 6 9 11 12 15 14 18 15 16 13 12 13 12 14 15 11 13 18 26 12 12 10 12 9 9 8 6 8 6 9 9 8 19 15 12 19 9 14 12 10 18 24 24 29 28 38 41 44 45 46 47 47 50 50 51 52 51 51 52
40 35 33 42 43 45 45 43 38 32 28 28 32 29 29 29 35 36 36 35 33 31 28 29 27 14 13 6 1 7 10 9 11 13 13 14 17 18 16 13 13 14 13 12 12 19 16 19 15 14 15 11 9 10 7 6 6 3 8 10 6 11 11 11 13 9 10 11 13 13 19 24 43 47 43 39 45 47 47 48 48 50 51 52 51 52 52 51
35 29 32 42 45 45 41 35 34 33 32 26 27 30 29 35 34 34 37 35 33 29 30 30 30 28 13 8 4 9 11 12 11 14 13 16 15 19 15 14 14 14 15 15 17 18 24 20 20 17 13 11 8 10 10 8 9 6 5 5 4 12 12 9 11 16 12 9 12 19 15 26 46 46 46 45 46 46 48 48 48 50 51 51 51 51 52 51
36 28 41 43 46 44 39 34 32 32 30 32 35 33 35 35 35 34 32 32 32 31 31 31 28 26 18 6 6 9 9 13 11 12 11 12 12 12 16 15 15 14 14 16 13 25 26 17 15 13 10 10 13 13 14 13 11 8 6 5 5 10 11 11 10 17 13 12 16 17 17 26 43 48 47 48 48 48 48 47 48 50 51 51 51 51 50 50
36 35 37 42 47 42 39 28 27 28 30 33 34 34 36 35 35 33 32 33 34 32 34 30 28 26 20 13 10 10 10 17 11 11 11 11 12 13 16 16 15 15 15 19 18 25 19 20 15 12 12 12 15 13 12 11 11 12 12 11 6 6 9 15 15 23 16 17 14 9 10 14 46 47 45 46 47 46 47 49 50 50 51 51 50 50 49 49
39 40 39 40 43 42 35 36 32 30 30 31 31 31 33 35 36 35 34 34 33 33 35 30 27 27 21 12 9 10 10 11 17 11 10 13 17 12 13 14 15 16 15 16 29 19 17 23 17 12 13 12 12 11 10 12 12 13 13 10 9 4 14 19 15 15 11 16 15 12 7 40 45 45 44 45 45 46 48 50 51 51 50 50 49 49 49 48
35 28 32 36 39 39 37 37 37 33 31 31 30 32 34 32 35 37 36 34 32 34 34 36 32 30 18 12 12 11 11 10 12 15 10 11 10 9 11 14 15 15 26 37 31 20 22 26 21 19 10 9 15 15 19 13 13 11 15 12 11 12 10 20 16 9 8 12 17 18 15 38 43 43 43 44 45 46 49 49 49 49 49 49 49 48 48 47
38 30 29 28 33 36 36 39 36 35 31 35 29 33 31 33 35 34 36 36 35 36 38 37 30 29 17 15 18 12 9 9 8 11 11 10 7 8 10 13 14 20 43 30 32 20 23 19 22 27 24 17 15 15 20 15 13 10 12 18 14 15 17 21 14 11 17 16 15 18 19 27 36 43 43 44 45 46 47 48 49 49 48 48 48 48 47 47
34 34 37 38 33 29 32 33 36 35 35 34 31 35 33 34 33 32 32 33 32 37 38 32 32 22 12 14 16 21 13 13 12 18 9 8 9 8 7 10 12 33 27 15 18 24 21 15 23 26 22 23 27 24 20 18 11 12 9 15 18 15 17 21 22 18 23 17 11 24 28 24 25 41 44 45 46 46 46 47 49 49 48 47 47 46 46 46
41 39 41 41 34 36 36 37 38 37 36 35 33 35 34 34 33 33 33 35 31 37 36 32 29 25 15 15 20 21 19 16 18 17 18 17 15 14 15 10 8 16 13 17 18 25 22 14 26 18 21 22 26 24 23 17 20 15 12 11 15 17 19 20 22 19 21 26 21 25 28 26 21 37 43 46 47 46 47 47 49 48 47 47 46 46 46 45
37 37 36 39 39 39 38 39 38 38 37 39 34 37 36 34 34 34 33 33 32 35 34 34 29 29 28 21 18 22 24 24 26 24 24 22 19 17 16 18 14 14 9 18 18 32 25 15 27 19 17 23 27 23 21 20 23 23 16 13 13 14 17 21 22 24 24 26 29 27 28 24 42 47 45 47 48 46 46 47 47 48 47 47 46 46 45 45
42 42 41 37 35 36 39 39 37 37 35 38 36 37 37 35 35 35 33 33 34 32 33 34 35 33 26 20 23 32 38 39 27 26 28 23 20 18 17 19 9 16 10 20 23 32 25 26 22 22 15 18 28 24 28 24 24 25 27 26 26 25 22 22 21 30 30 28 27 28 26 22 42 46 47 47 46 45 45 46 47 47 47 47 46 46 44 44
44 46 45 41 34 36 37 37 38 38 33 39 38 38 38 37 38 38 31 34 33 31 37 37 38 35 35 37 38 39 40 40 40 37 20 30 27 15 19 12 10 18 18 21 22 21 17 22 20 16 13 15 29 29 27 28 25 23 26 28 29 28 24 30 28 33 31 29 27 27 18 21 40 45 45 45 45 45 45 45 46 47 47 47 45 44 43 43